Danville, IN

8:43 PM EST on February 20, 2018 (GMT -0500)
Vermilion County

Weather History for KDNV - November, 2013

Change the Weather History Date:

Monday, November 25, 2013

  Actual Average (KLAF) Record (KLAF)
Temperature  
Mean Temperature 26 °F -  
Max Temperature 32 °F 46 °F 64 °F (2006)
Min Temperature 19 °F 29 °F 10 °F (2005)
Degree Days  
Heating Degree Days 40    
Moisture  
Dew Point 17 °F    
Average Humidity 65    
Maximum Humidity 76    
Minimum Humidity 58    
Precipitation  
Precipitation 0.00 in - - ()
Sea Level Pressure  
Sea Level Pressure 30.23 in    
Wind  
Wind Speed 10 mph (SSW)    
Max Wind Speed 17 mph    
Max Gust Speed 23 mph    
Visibility 10 miles    
Events Snow    
Averages and records for this station are not official NWS values.
T = Trace of Precipitation, MM = Missing Value Source: NWS Daily Summary

Daily Weather History Graph

Daily Weather History Graph

Search for Another Location

Airport or City:

Trip Planner

Search our weather history database for the weather conditions in past years. The results will help you decide how hot, cold, wet, or windy it might be!

Date:

Astronomy

Nov. 25, 2013 Rise Set
Actual Time 6:47 AM CST 4:27 PM CST
Civil Twilight 6:17 AM CST 4:56 PM CST
Nautical Twilight 5:44 AM CST 5:30 PM CST
Astronomical Twilight 5:11 AM CST 6:02 PM CST
Moon 11:51 PM CST (11/25) 12:04 PM CST (11/25)
Length of Visible Light 10h 39m
Length of Day
9h 39m
Waning Gibbous, 51% of the Moon is Illuminated
Nov 25
Waning Gibbous
Nov 25
Last Quarter
Dec 2
New
Dec 9
First Quarter
Dec 17
Full

Hourly Weather History & Observations

Time (CST) Temp. Windchill Dew Point Humidity Pressure Visibility Wind Dir Wind Speed Gust Speed Precip Events Conditions
12:15 AM 19.4 °F 11.5 °F 10.0 °F 67% 30.41 in 10.0 mi South 5.8 mph - N/A   Clear
12:35 AM 20.1 °F 11.3 °F 10.4 °F 66% 30.40 in 10.0 mi South 6.9 mph - N/A   Clear
12:55 AM 20.8 °F 11.2 °F 10.9 °F 66% 30.39 in 10.0 mi South 8.1 mph - N/A   Clear
1:15 AM 21.2 °F 13.6 °F 10.8 °F 64% 30.39 in 10.0 mi South 5.8 mph - N/A   Clear
1:35 AM 21.0 °F 12.4 °F 12.2 °F 69% 30.38 in 10.0 mi South 6.9 mph - N/A   Clear
1:55 AM 21.6 °F 11.3 °F 12.7 °F 69% 30.37 in 10.0 mi South 9.2 mph - N/A   Clear
2:15 AM 22.3 °F 12.2 °F 12.2 °F 65% 30.37 in 10.0 mi South 9.2 mph - N/A   Clear
2:35 AM 22.5 °F 12.4 °F 12.4 °F 65% 30.36 in 10.0 mi South 9.2 mph - N/A   Clear
2:55 AM 23.0 °F 14.7 °F 12.6 °F 64% 30.35 in 10.0 mi South 6.9 mph - N/A   Clear
3:15 AM 23.0 °F 14.7 °F 12.2 °F 63% 30.35 in 10.0 mi South 6.9 mph - N/A   Clear
3:35 AM 23.0 °F 13.1 °F 13.1 °F 66% 30.34 in 10.0 mi South 9.2 mph - N/A   Clear
3:55 AM 23.0 °F 12.4 °F 13.1 °F 66% 30.33 in 10.0 mi South 10.4 mph - N/A   Clear
4:15 AM 23.0 °F 11.1 °F 13.5 °F 67% 30.32 in 10.0 mi South 12.7 mph - N/A   Clear
4:35 AM 23.4 °F 14.3 °F 14.0 °F 67% 30.32 in 10.0 mi South 8.1 mph - N/A   Clear
4:55 AM 23.5 °F 13.7 °F 14.5 °F 69% 30.31 in 10.0 mi South 9.2 mph - N/A   Clear
5:15 AM 23.7 °F 14.7 °F 14.5 °F 68% 30.31 in 10.0 mi South 8.1 mph - N/A   Clear
5:35 AM 23.7 °F 14.7 °F 14.0 °F 66% 30.31 in 10.0 mi South 8.1 mph - N/A   Clear
5:55 AM 23.7 °F 14.0 °F 14.5 °F 68% 30.30 in 10.0 mi South 9.2 mph - N/A   Clear
6:15 AM 23.7 °F 12.1 °F 14.4 °F 67% 30.29 in 10.0 mi South 12.7 mph 17.3 mph N/A   Clear
6:35 AM 23.9 °F 13.5 °F 14.5 °F 67% 30.29 in 10.0 mi South 10.4 mph - N/A   Clear
6:55 AM 24.1 °F 13.1 °F 14.7 °F 68% 30.29 in 10.0 mi South 11.5 mph - N/A   Clear
7:15 AM 24.6 °F 12.2 °F 14.0 °F 64% 30.28 in 10.0 mi South 15.0 mph - N/A   Mostly Cloudy
7:35 AM 25.0 °F 12.6 °F 14.5 °F 65% 30.28 in 10.0 mi South 15.0 mph 18.4 mph N/A   Overcast
7:55 AM 25.5 °F 12.4 °F 14.5 °F 63% 30.27 in 10.0 mi South 17.3 mph 20.7 mph N/A   Overcast
8:15 AM 26.1 °F 14.0 °F 15.1 °F 63% 30.27 in 10.0 mi SSW 15.0 mph 20.7 mph N/A   Overcast
8:35 AM 26.4 °F 13.6 °F 15.3 °F 63% 30.27 in 10.0 mi SSW 17.3 mph 21.9 mph N/A   Overcast
8:55 AM 27.1 °F 14.9 °F 16.0 °F 63% 30.26 in 10.0 mi SSW 16.1 mph - N/A   Overcast
9:15 AM 27.5 °F 15.9 °F 16.5 °F 63% 30.25 in 10.0 mi SSW 15.0 mph 19.6 mph N/A   Overcast
9:35 AM 28.2 °F 16.3 °F 17.4 °F 64% 30.25 in 10.0 mi SSW 16.1 mph - N/A   Overcast
9:55 AM 28.8 °F 17.0 °F 18.0 °F 64% 30.23 in 10.0 mi South 16.1 mph - N/A   Overcast
10:15 AM 29.1 °F 17.5 °F 17.8 °F 63% 30.24 in 10.0 mi SSW 16.1 mph - N/A   Overcast
10:35 AM 29.3 °F 18.2 °F 17.6 °F 62% 30.23 in 10.0 mi SSW 15.0 mph - N/A   Overcast
10:55 AM 29.3 °F 18.2 °F 17.8 °F 62% 30.22 in 10.0 mi SSW 15.0 mph 23.0 mph N/A   Overcast
11:15 AM 29.3 °F 18.2 °F 17.6 °F 62% 30.21 in 10.0 mi SSW 15.0 mph - N/A   Overcast
11:35 AM 30.0 °F 18.3 °F 18.9 °F 63% 30.21 in 10.0 mi SSW 17.3 mph 23.0 mph N/A   Overcast
11:55 AM 30.2 °F 18.9 °F 17.6 °F 60% 30.20 in 10.0 mi SW 16.1 mph 23.0 mph N/A   Overcast
12:15 PM 31.3 °F 20.3 °F 18.0 °F 58% 30.19 in 10.0 mi SSW 16.1 mph - N/A   Overcast
12:35 PM 31.5 °F 21.4 °F 18.1 °F 58% 30.18 in 10.0 mi SW 13.8 mph - N/A   Overcast
12:55 PM 31.8 °F 21.8 °F 18.5 °F 58% 30.18 in 10.0 mi SW 13.8 mph - N/A   Overcast
1:15 PM 31.6 °F 20.7 °F 18.5 °F 58% 30.18 in 10.0 mi SSW 16.1 mph - N/A   Overcast
1:35 PM 31.6 °F 20.7 °F 18.5 °F 58% 30.17 in 10.0 mi SSW 16.1 mph - N/A   Overcast
1:55 PM 31.6 °F 22.1 °F 19.0 °F 60% 30.15 in 10.0 mi SW 12.7 mph 18.4 mph N/A   Overcast
2:15 PM 32.0 °F 23.6 °F 18.5 °F 58% 30.15 in 10.0 mi SW 10.4 mph - N/A   Overcast
2:35 PM 32.0 °F 22.5 °F 18.9 °F 58% 30.15 in 10.0 mi SSW 12.7 mph 17.3 mph N/A   Overcast
2:55 PM 32.0 °F 22.1 °F 19.0 °F 59% 30.16 in 10.0 mi SSW 13.8 mph 17.3 mph N/A   Overcast
3:15 PM 32.0 °F 21.6 °F 19.2 °F 59% 30.16 in 10.0 mi SW 15.0 mph - N/A   Overcast
3:35 PM 32.0 °F 23.6 °F 19.2 °F 59% 30.17 in 10.0 mi SSW 10.4 mph - N/A   Overcast
3:55 PM 32.0 °F 22.1 °F 19.4 °F 60% 30.16 in 10.0 mi SSW 13.8 mph 18.4 mph N/A   Overcast
4:15 PM 32.0 °F 23.6 °F 19.6 °F 60% 30.16 in 10.0 mi SW 10.4 mph - N/A   Overcast
4:35 PM 32.0 °F 24.2 °F 19.6 °F 60% 30.15 in 10.0 mi SSW 9.2 mph - N/A   Overcast
4:55 PM 32.0 °F 23.6 °F 19.6 °F 60% 30.15 in 10.0 mi SSW 10.4 mph 17.3 mph N/A   Overcast
5:15 PM 32.0 °F 24.2 °F 19.9 °F 61% 30.15 in 10.0 mi SSW 9.2 mph - N/A   Overcast
5:35 PM 31.8 °F 23.9 °F 20.1 °F 62% 30.15 in 10.0 mi SSW 9.2 mph - N/A   Overcast
5:55 PM 31.8 °F 22.8 °F 20.1 °F 62% 30.15 in 10.0 mi SSW 11.5 mph - N/A   Overcast
6:15 PM 31.6 °F 22.6 °F 20.8 °F 64% 30.16 in 10.0 mi SSW 11.5 mph - N/A   Overcast
6:35 PM 31.6 °F 23.1 °F 21.0 °F 65% 30.16 in 10.0 mi SSW 10.4 mph - N/A   Overcast
6:55 PM 31.6 °F 23.7 °F 21.0 °F 65% 30.16 in 10.0 mi SW 9.2 mph 17.3 mph N/A   Overcast
7:15 PM 31.6 °F 23.1 °F 20.8 °F 64% 30.16 in 10.0 mi SW 10.4 mph - N/A   Overcast
7:35 PM 31.5 °F 22.3 °F 21.0 °F 65% 30.16 in 10.0 mi SW 11.5 mph - N/A   Overcast
7:55 PM 31.6 °F 22.1 °F 20.5 °F 63% 30.17 in 10.0 mi SW 12.7 mph 16.1 mph N/A   Overcast
8:15 PM 31.6 °F 22.6 °F 20.7 °F 64% 30.17 in 10.0 mi WSW 11.5 mph - N/A   Overcast
8:35 PM 31.6 °F 23.1 °F 20.5 °F 63% 30.16 in 10.0 mi WSW 10.4 mph - N/A   Overcast
8:55 PM 30.9 °F 21.7 °F 22.3 °F 70% 30.15 in 7.0 mi WSW 11.5 mph - N/A   Overcast
9:15 PM 30.2 °F 20.2 °F 23.4 °F 76% 30.15 in 7.0 mi WSW 12.7 mph 17.3 mph N/A Snow Light Snow
9:35 PM 30.0 °F 23.2 °F 23.2 °F 76% 30.15 in 10.0 mi WSW 6.9 mph - N/A   Overcast
9:55 PM 30.2 °F 24.3 °F 22.1 °F 72% 30.14 in 10.0 mi West 5.8 mph - N/A   Overcast
10:15 PM 30.7 °F 23.3 °F 21.7 °F 69% 30.14 in 10.0 mi West 8.1 mph - N/A   Overcast
10:35 PM 30.4 °F 21.5 °F 22.5 °F 72% 30.13 in 10.0 mi West 10.4 mph - N/A   Overcast
10:55 PM 30.2 °F 23.4 °F 22.8 °F 74% 30.13 in 10.0 mi WSW 6.9 mph - N/A   Overcast
11:15 PM 30.2 °F 26.7 °F 23.0 °F 75% 30.14 in 10.0 mi SSW 3.5 mph - N/A   Overcast
11:35 PM 30.2 °F 24.3 °F 23.4 °F 76% 30.14 in 10.0 mi SSW 5.8 mph - N/A   Overcast
11:55 PM 30.2 °F 24.3 °F 23.5 °F 76% 30.14 in 10.0 mi SSW 5.8 mph - N/A   Overcast